SCP
0 0 0 0 0 0 0 0 0 0 0 -0 -0 0 0 -0 -0 -0 -0 -0 -0 -0 -0 0 0 0 -0 0 0 0 0 -0 0 0 0 -0 0 0 0 0 0 0 0 0 0
0 0 0 0 0 0 0 0 0 0 0 0 0 0 0 0 -0 -0 -0 -0 -0 -0 0 0 -0 -0 0 0 0 0 0 0 -0 0 0 0 0 0 0 0 0 0 0 0 0
0 0 0 0 0 0 0 0 0 -0 -0 0 0 0 0 0 0 -0 -0 -0 -0 0 0 0 -0 -0 -0 0 0 0 0 -0 -0 0 0 0 0 0 0 0 0 0 0 0 0
0 0 0 0 0 0 0 0 0 0 0 0 0 0 0 0 0 -0 -0 -0 -0 0 0 0 0 0 0 0 0 -0 -0 0 0 0 0 0 0 0 0 0 0 0 0 0 0
0 0 0 0 0 0 0 0 0 0 0 0 0 0 0 0 0 -0 -0 -0 0 0 0 0 -0 -0 0 -0 -0 -0 -0 0 0 0 0 0 0 0 0 0 0 0 0 0 0
0 0 0 0 0 0 0 0 0 -0 0 0 0 0 0 -0 0 0 -0 -0 -0 0 0 0 0 -0 -0 0 0 0 0 0 0 0 0 0 0 0 0 0 0 0 0 0 0
0 0 0 0 0 0 0 0 0 0 -0 -0 0 0 -0 0 0 0 0 0 0 0 -0 -0 0 0 0 -0 -0 -0 0 0 0 0 0 0 0 0 0 0 0 0 0 0 0
0 0 0 0 0 0 0 0 0 0 0 0 0 -0 0 0 0 0 0 -0 -0 -0 -0 -0 -0 -0 0 -0 0 0 0 0 0 0 0 0 0 0 0 0 0 0 0 0 0
0 0 0 0 0 0 0 0 0 0 0 0 0 -0 0 0 0 0 0 -0 -0 -0 -0 0 -0 0 0 0 0 0 0 0 0 0 0 0 0 0 0 0 0 0 0 0 0
0 0 0 0 0 0 0 0 0 0 0 0 0 0 0 0 0 0 0 0 0 0 0 0 0 0 0 0 0 0 0 0 0 0 0 0 0 0 0 0 0 0 0 0 0
0 0 0 0 -0 0 0 0 0 0 -0 -0 0 -0 0 0 0 -0 0 0 0 0 0 0 0 0 0 0 0 0 0 0 0 0 0 0 0 0 0 0 0 0 0 0 0
0 0 0 0 0 0 0 0 0 -0 0 0 0 -0 0 0 0 -0 -0 0 0 0 0 0 -0 0 0 0 0 0 0 0 0 0 0 0 0 0 0 0 0 0 0 0 0
0 0 0 0 0 0 0 0 0 0 0 0 0 0 0 -0 0 -0 0 0 0 -0 -0 0 0 0 0 0 0 0 0 0 0 0 0 0 0 0 0 0 0 0 0 0 0
0 0 0 0 0 0 0 0 0 0 0 0 0 0 0 0 0 0 0 0 0 0 0 0 0 0 0 0 0 0 0 0 0 0 0 0 0 0 0 0 0 0 0 0 0
0 0 0 0 0 0 0 0 0 0 0 0 0 0 -0 -0 0 0 0 0 0 0 0 0 0 0 0 0 0 0 0 0 0 0 0 0 0 0 0 0 0 0 0 0 0
0 0 0 0 0 0 0 0 0 0 0 0 0 0 -0 -0 -0 0 0 0 0 0 0 0 0 0 0 0 0 0 0 0 0 0 0 0 0 0 0 0 0 0 0 0 0
0 0 0 0 0 0 0 0 0 0 0 0 0 -0 -0 0 0 -0 0 0 0 0 0 0 0 0 0 0 0 0 0 0 0 0 0 0 0 0 0 0 0 0 0 0 0
0 0 0 0 0 0 0 0 0 0 0 0 0 -0 0 0 0 0 0 0 0 0 0 0 0 0 0 0 0 0 0 0 0 0 0 0 0 0 0 0 0 0 0 0 0
-0 0 0 0 0 0 0 0 0 0 0 0 0 -0 0 0 0 0 0 0 0 0 0 0 0 0 0 0 0 0 0 0 0 0 0 0 0 0 0 0 0 0 0 0 0
0 0 0 0 0 0 0 0 0 0 0 0 0 0 0 0 0 0 0 0 0 0 0 0 0 0 0 0 0 0 0 0 0 0 0 0 0 0 0 0 0 0 0 0 0
0 0 0 0 0 0 0 0 0 0 0 0 0 0 0 0 0 0 0 0 0 0 0 0 0 0 0 0 0 0 0 0 0 0 0 0 0 0 0 0 0 0 0 0 0
0 0 0 0 0 0 0 0 0 0 0 0 0 0 0 0 0 0 0 0 0 0 0 0 0 0 0 0 0 0 0 0 0 0 0 0 0 0 0 0 0 0 0 0 0
0 0 0 0 0 0 0 0 0 0 0 0 0 0 0 0 0 0 0 0 0 0 0 0 0 0 0 0 0 0 0 0 0 0 0 0 0 0 0 0 0 0 0 0 0
0 0 0 0 0 0 0 0 0 0 0 0 0 0 0 0 0 0 0 0 0 0 0 0 0 0 0 0 0 0 0 0 0 0 0 0 0 0 0 0 0 0 0 0 0
0 0 0 0 0 0 0 0 0 0 0 0 0 0 0 0 0 0 0 0 0 0 0 0 0 0 0 0 0 0 0 0 0 0 0 0 0 0 0 0 0 0 0 0 0
0 0 0 0 0 0 0 0 0 0 0 0 0 0 0 0 0 0 0 0 0 0 0 0 0 0 0 0 0 0 0 0 0 0 0 0 0 0 0 0 0 0 0 0 0
0 0 0 0 0 0 0 0 0 0 0 0 0 0 0 0 0 0 0 0 0 0 0 0 0 0 0 0 0 0 0 -0 0 0 0 0 0 0 0 0 0 0 0 0 0
Wind_Speed_500mb
34 33 32 31 28 25 20 18 14 6 4 7 6 13 21 43 54 31 56 33 25 26 31 21 19 21 38 33 32 16 17 23 18 10 19 14 13 20 24 32 31 20 21 13 18
30 31 32 33 33 29 22 17 12 9 18 11 13 8 7 15 36 74 51 15 13 17 17 15 32 35 38 34 24 16 24 14 16 22 22 16 15 16 9 20 24 22 17 15 19
29 30 31 31 29 28 29 18 15 16 46 46 5 11 5 5 35 55 46 21 20 17 16 21 32 54 50 37 27 15 20 33 31 31 22 26 20 10 14 14 14 14 12 13 19
30 30 29 28 25 25 29 26 18 17 8 39 53 30 26 2 14 51 44 24 11 7 5 12 15 21 28 25 29 34 32 29 26 21 14 15 13 16 5 14 11 9 7 11 18
27 28 26 23 26 30 32 35 35 34 20 18 16 18 33 62 34 44 50 24 17 19 33 39 48 41 31 52 60 42 35 30 25 20 19 12 11 14 17 12 8 4 4 11 16
26 24 22 22 26 27 29 35 47 47 47 21 7 20 28 70 33 46 40 33 48 26 29 24 45 60 39 19 16 37 41 32 20 17 12 10 14 5 12 11 7 5 6 11 14
23 23 19 17 18 20 21 23 16 27 39 23 32 56 87 34 32 35 42 47 34 36 44 32 17 12 32 51 48 45 31 21 11 8 5 1 15 5 16 12 12 11 12 13 15
22 19 15 16 19 14 15 20 22 25 25 24 42 50 45 39 30 22 28 41 47 52 60 50 48 55 28 48 20 13 5 3 11 3 4 9 13 11 13 14 16 17 18 20 20
23 19 18 15 15 14 12 15 27 34 44 36 16 29 22 18 36 33 34 31 41 51 53 37 49 43 24 14 16 4 9 10 10 4 7 8 14 5 13 17 22 24 25 26 27
21 18 15 14 17 37 39 40 15 4 4 19 33 17 24 24 22 25 27 18 15 9 12 30 26 29 25 9 14 15 10 2 7 9 11 15 17 3 15 23 27 29 30 32 35
18 16 13 12 31 12 11 5 6 22 64 46 36 36 13 19 35 31 16 15 24 32 20 40 29 29 30 23 15 10 10 12 3 8 16 11 20 17 15 23 25 29 35 38 41
18 17 21 23 11 7 7 14 20 24 37 32 26 33 30 22 16 41 32 20 34 18 12 18 35 19 15 16 13 10 11 14 2 4 11 19 28 21 17 24 25 29 37 40 43
15 14 17 22 23 26 37 37 25 17 10 17 21 21 14 28 25 34 22 14 35 39 39 30 13 5 6 7 8 4 23 20 10 12 14 24 13 7 9 23 31 33 39 43 45
16 10 8 13 9 15 20 18 12 6 5 13 13 14 15 3 15 26 19 9 7 11 13 18 8 1 2 9 16 8 18 12 9 9 8 12 10 5 3 12 17 21 28 37 39
16 16 13 5 10 7 8 8 6 1 2 7 8 7 18 15 7 21 19 25 15 10 11 9 4 5 10 9 14 11 12 10 8 12 13 7 10 5 5 18 25 30 28 32 35
10 12 13 16 5 10 7 5 4 5 6 5 2 2 5 19 9 3 10 13 5 10 26 14 4 5 11 7 8 17 10 12 11 8 8 10 10 7 11 17 23 35 36 33 33
10 9 10 12 11 12 6 1 2 5 3 8 4 3 8 6 6 6 6 13 7 6 4 7 5 2 7 14 8 20 18 5 5 3 10 3 10 11 16 17 19 31 37 33 32
10 10 8 8 10 11 9 6 6 4 4 5 6 8 2 3 4 2 3 3 9 5 1 7 7 1 5 7 10 11 14 8 10 13 17 5 7 5 11 20 23 29 30 26 28
9 9 7 8 9 11 4 1 1 6 11 16 11 10 8 7 4 6 3 3 4 10 9 8 5 7 3 1 9 7 5 6 7 3 9 5 8 19 2 10 15 28 26 24 25
9 7 5 9 10 9 8 1 2 4 5 9 8 5 6 8 7 4 5 4 5 3 6 4 7 4 7 5 5 9 5 6 4 10 12 5 10 11 18 21 23 29 26 23 22
10 5 3 13 11 3 2 4 4 5 2 4 5 6 3 4 6 4 4 7 5 6 2 2 5 8 5 14 3 7 5 1 5 4 8 11 5 9 8 17 23 28 24 20 20
5 2 7 16 5 3 3 4 2 9 4 2 3 3 6 7 6 5 5 1 9 9 2 3 6 9 4 5 5 10 7 8 7 5 6 7 14 5 5 14 22 26 21 16 16
4 5 8 16 4 2 6 5 2 7 7 6 7 4 3 7 7 7 6 3 10 8 4 8 5 9 11 9 8 12 14 13 5 3 13 7 9 9 5 11 30 23 16 13 14
4 3 4 5 4 3 7 7 8 3 5 4 2 5 7 10 8 5 10 8 11 8 6 5 7 14 14 11 7 9 13 20 17 9 3 22 32 33 32 16 34 21 12 11 11
1 1 7 3 7 5 4 4 10 9 7 12 7 18 11 9 9 9 8 10 11 12 7 6 10 12 25 29 27 28 29 27 33 21 14 9 14 33 32 24 32 14 10 10 11
5 5 3 6 8 13 8 9 15 8 12 9 14 6 16 11 8 4 11 10 7 18 11 6 5 12 16 4 8 23 28 29 34 35 33 44 50 32 11 11 14 15 14 15 14
13 9 4 7 8 9 8 9 8 12 11 4 8 10 15 15 8 2 3 3 2 7 17 8 6 7 10 4 22 23 21 35 22 22 17 18 16 17 19 27 19 14 15 18 17
Wind_Direction_500mb
104 98 93 91 89 93 101 115 122 103 346 225 163 65 52 50 48 90 38 1 48 92 84 68 65 73 71 60 63 68 103 91 86 78 123 145 101 78 76 84 71 80 81 61 18
110 103 100 98 93 84 86 103 106 69 4 239 225 267 24 21 35 49 24 52 84 101 65 70 68 72 65 52 52 75 84 69 80 106 116 121 102 116 121 92 87 82 66 43 21
118 112 106 101 91 76 65 88 109 74 47 52 134 227 264 13 29 6 23 79 101 95 90 84 82 76 71 61 44 45 94 108 97 106 108 112 104 101 123 87 67 83 68 36 17
120 116 112 102 85 74 63 73 93 80 41 64 64 89 71 234 48 355 26 60 100 62 46 73 98 77 66 74 86 96 96 109 110 109 107 92 108 83 78 104 107 90 52 20 5
120 124 114 96 88 74 76 81 82 62 71 102 59 73 70 71 32 17 36 44 80 108 92 93 88 86 88 97 88 94 103 103 107 103 91 100 96 106 119 133 136 103 8 352 354
110 120 118 94 98 73 81 68 77 69 70 83 87 82 89 69 30 35 42 52 60 88 81 93 98 105 81 78 70 116 112 111 104 90 100 111 123 209 169 171 188 244 300 327 339
111 115 112 96 99 78 82 65 71 59 59 77 89 72 72 64 35 34 42 59 80 79 82 108 99 97 101 94 112 119 109 114 93 87 115 18 188 171 155 191 230 256 281 297 303
114 114 108 92 96 88 89 72 73 63 68 70 74 75 76 52 43 64 57 63 76 83 85 84 90 86 96 125 127 117 174 225 82 153 128 239 57 141 188 214 246 260 274 280 286
111 102 104 93 82 96 101 101 92 76 69 55 70 80 65 40 40 49 81 87 81 82 80 77 73 87 129 150 129 113 40 40 144 32 304 257 346 112 211 234 260 263 269 276 282
109 92 97 107 99 97 89 88 64 202 45 40 39 57 48 39 41 38 73 94 102 66 55 46 71 75 49 8 46 14 9 41 343 54 301 277 272 215 238 245 257 270 276 278 281
113 90 83 112 150 100 39 25 48 44 61 73 66 84 94 60 50 40 47 49 62 65 67 50 77 59 52 50 51 24 357 336 321 14 304 271 286 290 242 247 265 278 280 281 283
126 99 83 95 128 293 259 97 105 126 78 61 63 64 60 61 49 33 50 70 58 69 101 97 58 56 49 41 40 32 341 7 237 352 284 304 289 281 236 244 266 287 291 293 293
143 118 91 93 94 101 98 102 107 103 81 46 45 42 31 50 43 21 39 62 54 66 59 71 86 76 11 51 309 25 359 346 314 323 248 303 249 160 228 251 263 280 288 298 297
182 169 115 113 103 89 79 90 89 106 138 26 24 28 3 57 56 32 35 59 77 89 76 74 115 90 359 48 350 310 358 312 279 281 350 352 322 161 226 301 283 297 298 321 322
208 216 205 131 140 113 108 75 43 12 156 27 43 41 39 74 113 28 37 57 63 76 249 84 113 19 24 10 345 1 321 290 267 277 300 101 268 109 225 340 354 346 325 324 327
190 194 198 198 183 158 123 66 13 221 90 119 48 65 114 51 55 64 51 69 123 66 66 93 96 344 11 313 292 321 277 240 247 261 226 47 327 299 353 321 329 340 335 334 331
161 173 179 188 200 193 181 7 256 76 140 143 122 121 88 69 83 20 54 58 22 260 73 159 109 89 330 297 207 330 321 286 252 285 354 20 278 267 302 319 317 324 326 331 331
157 148 155 171 178 185 171 232 84 107 185 133 149 124 131 161 100 90 185 98 61 338 163 329 175 311 17 13 329 11 353 18 297 341 324 141 261 336 282 297 303 326 327 327 334
163 168 163 163 166 165 222 188 108 160 142 166 162 205 158 174 248 207 38 63 53 3 350 325 127 138 31 317 306 27 1 24 277 211 259 305 257 265 10 326 325 335 331 330 335
146 153 161 168 152 147 238 204 93 77 127 189 223 243 179 159 209 232 191 128 135 14 343 91 262 198 124 189 97 306 86 240 129 329 326 298 282 308 358 354 349 346 341 334 327
132 124 193 154 136 186 216 95 134 149 158 228 227 182 212 201 231 216 159 146 193 152 308 271 273 124 199 204 258 175 200 187 283 293 315 311 339 208 308 348 340 341 339 331 319
125 177 171 157 171 39 143 68 122 157 170 177 262 247 227 181 210 233 231 16 163 177 262 118 293 265 332 117 290 273 269 238 285 106 237 286 275 174 263 329 334 326 330 328 315
127 98 159 167 140 160 133 136 179 172 208 201 201 242 190 209 237 225 197 105 161 197 222 166 214 287 180 184 192 235 212 232 245 258 233 276 309 152 224 292 337 321 322 321 314
154 118 100 146 126 191 171 181 179 183 174 182 175 184 184 208 213 221 187 161 190 208 191 190 251 259 276 334 312 233 223 219 206 242 223 245 285 300 322 331 323 316 305 302 308
342 136 156 197 197 180 203 181 190 194 208 201 204 228 215 223 216 224 183 170 193 178 186 255 273 266 273 276 271 261 255 226 222 230 244 352 288 290 297 289 300 292 277 272 282
187 183 147 137 149 179 175 200 224 186 189 203 236 210 213 240 249 241 193 210 215 180 205 197 278 297 285 285 264 258 248 239 237 230 251 266 278 281 302 309 289 280 260 251 261
213 178 170 172 179 196 201 204 203 189 201 237 237 206 220 250 261 320 205 2 203 201 194 207 274 304 277 259 286 277 243 212 209 212 202 227 230 276 298 314 300 283 257 249 243
Wind_Speed_850mb
34 33 32 31 28 25 20 18 14 6 4 7 6 13 21 43 54 31 56 33 25 26 31 21 19 21 38 33 32 16 17 23 18 10 19 14 13 20 24 32 31 20 21 13 18
30 31 32 33 33 29 22 17 12 9 18 11 13 8 7 15 36 74 51 15 13 17 17 15 32 35 38 34 24 16 24 14 16 22 22 16 15 16 9 20 24 22 17 15 19
29 30 31 31 29 28 29 18 15 16 46 46 5 11 5 5 35 55 46 21 20 17 16 21 32 54 50 37 27 15 20 33 31 31 22 26 20 10 14 14 14 14 12 13 19
30 30 29 28 25 25 29 26 18 17 8 39 53 30 26 2 14 51 44 24 11 7 5 12 15 21 28 25 29 34 32 29 26 21 14 15 13 16 5 14 11 9 7 11 18
27 28 26 23 26 30 32 35 35 34 20 18 16 18 33 62 34 44 50 24 17 19 33 39 48 41 31 52 60 42 35 30 25 20 19 12 11 14 17 12 8 4 4 11 16
26 24 22 22 26 27 29 35 47 47 47 21 7 20 28 70 33 46 40 33 48 26 29 24 45 60 39 19 16 37 41 32 20 17 12 10 14 5 12 11 7 5 6 11 14
23 23 19 17 18 20 21 23 16 27 39 23 32 56 87 34 32 35 42 47 34 36 44 32 17 12 32 51 48 45 31 21 11 8 5 1 15 5 16 12 12 11 12 13 15
22 19 15 16 19 14 15 20 22 25 25 24 42 50 45 39 30 22 28 41 47 52 60 50 48 55 28 48 20 13 5 3 11 3 4 9 13 11 13 14 16 17 18 20 20
23 19 18 15 15 14 12 15 27 34 44 36 16 29 22 18 36 33 34 31 41 51 53 37 49 43 24 14 16 4 9 10 10 4 7 8 14 5 13 17 22 24 25 26 27
21 18 15 14 17 37 39 40 15 4 4 19 33 17 24 24 22 25 27 18 15 9 12 30 26 29 25 9 14 15 10 2 7 9 11 15 17 3 15 23 27 29 30 32 35
18 16 13 12 31 12 11 5 6 22 64 46 36 36 13 19 35 31 16 15 24 32 20 40 29 29 30 23 15 10 10 12 3 8 16 11 20 17 15 23 25 29 35 38 41
18 17 21 23 11 7 7 14 20 24 37 32 26 33 30 22 16 41 32 20 34 18 12 18 35 19 15 16 13 10 11 14 2 4 11 19 28 21 17 24 25 29 37 40 43
15 14 17 22 23 26 37 37 25 17 10 17 21 21 14 28 25 34 22 14 35 39 39 30 13 5 6 7 8 4 23 20 10 12 14 24 13 7 9 23 31 33 39 43 45
16 10 8 13 9 15 20 18 12 6 5 13 13 14 15 3 15 26 19 9 7 11 13 18 8 1 2 9 16 8 18 12 9 9 8 12 10 5 3 12 17 21 28 37 39
16 16 13 5 10 7 8 8 6 1 2 7 8 7 18 15 7 21 19 25 15 10 11 9 4 5 10 9 14 11 12 10 8 12 13 7 10 5 5 18 25 30 28 32 35
10 12 13 16 5 10 7 5 4 5 6 5 2 2 5 19 9 3 10 13 5 10 26 14 4 5 11 7 8 17 10 12 11 8 8 10 10 7 11 17 23 35 36 33 33
10 9 10 12 11 12 6 1 2 5 3 8 4 3 8 6 6 6 6 13 7 6 4 7 5 2 7 14 8 20 18 5 5 3 10 3 10 11 16 17 19 31 37 33 32
10 10 8 8 10 11 9 6 6 4 4 5 6 8 2 3 4 2 3 3 9 5 1 7 7 1 5 7 10 11 14 8 10 13 17 5 7 5 11 20 23 29 30 26 28
9 9 7 8 9 11 4 1 1 6 11 16 11 10 8 7 4 6 3 3 4 10 9 8 5 7 3 1 9 7 5 6 7 3 9 5 8 19 2 10 15 28 26 24 25
9 7 5 9 10 9 8 1 2 4 5 9 8 5 6 8 7 4 5 4 5 3 6 4 7 4 7 5 5 9 5 6 4 10 12 5 10 11 18 21 23 29 26 23 22
10 5 3 13 11 3 2 4 4 5 2 4 5 6 3 4 6 4 4 7 5 6 2 2 5 8 5 14 3 7 5 1 5 4 8 11 5 9 8 17 23 28 24 20 20
5 2 7 16 5 3 3 4 2 9 4 2 3 3 6 7 6 5 5 1 9 9 2 3 6 9 4 5 5 10 7 8 7 5 6 7 14 5 5 14 22 26 21 16 16
4 5 8 16 4 2 6 5 2 7 7 6 7 4 3 7 7 7 6 3 10 8 4 8 5 9 11 9 8 12 14 13 5 3 13 7 9 9 5 11 30 23 16 13 14
4 3 4 5 4 3 7 7 8 3 5 4 2 5 7 10 8 5 10 8 11 8 6 5 7 14 14 11 7 9 13 20 17 9 3 22 32 33 32 16 34 21 12 11 11
1 1 7 3 7 5 4 4 10 9 7 12 7 18 11 9 9 9 8 10 11 12 7 6 10 12 25 29 27 28 29 27 33 21 14 9 14 33 32 24 32 14 10 10 11
5 5 3 6 8 13 8 9 15 8 12 9 14 6 16 11 8 4 11 10 7 18 11 6 5 12 16 4 8 23 28 29 34 35 33 44 50 32 11 11 14 15 14 15 14
13 9 4 7 8 9 8 9 8 12 11 4 8 10 15 15 8 2 3 3 2 7 17 8 6 7 10 4 22 23 21 35 22 22 17 18 16 17 19 27 19 14 15 18 17
Wind_Direction_850mb
104 98 93 91 89 93 101 115 122 103 346 225 163 65 52 50 48 90 38 1 48 92 84 68 65 73 71 60 63 68 103 91 86 78 123 145 101 78 76 84 71 80 81 61 18
110 103 100 98 93 84 86 103 106 69 4 239 225 267 24 21 35 49 24 52 84 101 65 70 68 72 65 52 52 75 84 69 80 106 116 121 102 116 121 92 87 82 66 43 21
118 112 106 101 91 76 65 88 109 74 47 52 134 227 264 13 29 6 23 79 101 95 90 84 82 76 71 61 44 45 94 108 97 106 108 112 104 101 123 87 67 83 68 36 17
120 116 112 102 85 74 63 73 93 80 41 64 64 89 71 234 48 355 26 60 100 62 46 73 98 77 66 74 86 96 96 109 110 109 107 92 108 83 78 104 107 90 52 20 5
120 124 114 96 88 74 76 81 82 62 71 102 59 73 70 71 32 17 36 44 80 108 92 93 88 86 88 97 88 94 103 103 107 103 91 100 96 106 119 133 136 103 8 352 354
110 120 118 94 98 73 81 68 77 69 70 83 87 82 89 69 30 35 42 52 60 88 81 93 98 105 81 78 70 116 112 111 104 90 100 111 123 209 169 171 188 244 300 327 339
111 115 112 96 99 78 82 65 71 59 59 77 89 72 72 64 35 34 42 59 80 79 82 108 99 97 101 94 112 119 109 114 93 87 115 18 188 171 155 191 230 256 281 297 303
114 114 108 92 96 88 89 72 73 63 68 70 74 75 76 52 43 64 57 63 76 83 85 84 90 86 96 125 127 117 174 225 82 153 128 239 57 141 188 214 246 260 274 280 286
111 102 104 93 82 96 101 101 92 76 69 55 70 80 65 40 40 49 81 87 81 82 80 77 73 87 129 150 129 113 40 40 144 32 304 257 346 112 211 234 260 263 269 276 282
109 92 97 107 99 97 89 88 64 202 45 40 39 57 48 39 41 38 73 94 102 66 55 46 71 75 49 8 46 14 9 41 343 54 301 277 272 215 238 245 257 270 276 278 281
113 90 83 112 150 100 39 25 48 44 61 73 66 84 94 60 50 40 47 49 62 65 67 50 77 59 52 50 51 24 357 336 321 14 304 271 286 290 242 247 265 278 280 281 283
126 99 83 95 128 293 259 97 105 126 78 61 63 64 60 61 49 33 50 70 58 69 101 97 58 56 49 41 40 32 341 7 237 352 284 304 289 281 236 244 266 287 291 293 293
143 118 91 93 94 101 98 102 107 103 81 46 45 42 31 50 43 21 39 62 54 66 59 71 86 76 11 51 309 25 359 346 314 323 248 303 249 160 228 251 263 280 288 298 297
182 169 115 113 103 89 79 90 89 106 138 26 24 28 3 57 56 32 35 59 77 89 76 74 115 90 359 48 350 310 358 312 279 281 350 352 322 161 226 301 283 297 298 321 322
208 216 205 131 140 113 108 75 43 12 156 27 43 41 39 74 113 28 37 57 63 76 249 84 113 19 24 10 345 1 321 290 267 277 300 101 268 109 225 340 354 346 325 324 327
190 194 198 198 183 158 123 66 13 221 90 119 48 65 114 51 55 64 51 69 123 66 66 93 96 344 11 313 292 321 277 240 247 261 226 47 327 299 353 321 329 340 335 334 331
161 173 179 188 200 193 181 7 256 76 140 143 122 121 88 69 83 20 54 58 22 260 73 159 109 89 330 297 207 330 321 286 252 285 354 20 278 267 302 319 317 324 326 331 331
157 148 155 171 178 185 171 232 84 107 185 133 149 124 131 161 100 90 185 98 61 338 163 329 175 311 17 13 329 11 353 18 297 341 324 141 261 336 282 297 303 326 327 327 334
163 168 163 163 166 165 222 188 108 160 142 166 162 205 158 174 248 207 38 63 53 3 350 325 127 138 31 317 306 27 1 24 277 211 259 305 257 265 10 326 325 335 331 330 335
146 153 161 168 152 147 238 204 93 77 127 189 223 243 179 159 209 232 191 128 135 14 343 91 262 198 124 189 97 306 86 240 129 329 326 298 282 308 358 354 349 346 341 334 327
132 124 193 154 136 186 216 95 134 149 158 228 227 182 212 201 231 216 159 146 193 152 308 271 273 124 199 204 258 175 200 187 283 293 315 311 339 208 308 348 340 341 339 331 319
125 177 171 157 171 39 143 68 122 157 170 177 262 247 227 181 210 233 231 16 163 177 262 118 293 265 332 117 290 273 269 238 285 106 237 286 275 174 263 329 334 326 330 328 315
127 98 159 167 140 160 133 136 179 172 208 201 201 242 190 209 237 225 197 105 161 197 222 166 214 287 180 184 192 235 212 232 245 258 233 276 309 152 224 292 337 321 322 321 314
154 118 100 146 126 191 171 181 179 183 174 182 175 184 184 208 213 221 187 161 190 208 191 190 251 259 276 334 312 233 223 219 206 242 223 245 285 300 322 331 323 316 305 302 308
342 136 156 197 197 180 203 181 190 194 208 201 204 228 215 223 216 224 183 170 193 178 186 255 273 266 273 276 271 261 255 226 222 230 244 352 288 290 297 289 300 292 277 272 282
187 183 147 137 149 179 175 200 224 186 189 203 236 210 213 240 249 241 193 210 215 180 205 197 278 297 285 285 264 258 248 239 237 230 251 266 278 281 302 309 289 280 260 251 261
213 178 170 172 179 196 201 204 203 189 201 237 237 206 220 250 261 320 205 2 203 201 194 207 274 304 277 259 286 277 243 212 209 212 202 227 230 276 298 314 300 283 257 249 243